Theta_e
315 315 315 315 315 315 315 315 315 315 314 314 314 314 312 310 308 306 306 305 306 307 307 306 307 307 308 308 309 308 307 307 311 316 316 318 318 318 319 315 313 312 312 313 311 313 313 313 314 314 316 316 320 322 320 323 326 331 334 327 325 327 321 319 322 322 323 320 318 317 319 320 318 317 315 315 316 318 317 316 318 320 325 331 332 329 331 332
314 314 315 314 314 315 315 315 315 315 314 314 314 314 311 309 308 306 306 306 306 307 307 306 307 308 308 308 308 307 307 307 313 319 317 318 317 314 314 312 313 313 312 313 313 314 314 314 313 314 318 317 320 321 321 324 323 329 329 323 331 330 317 317 319 318 321 320 318 318 318 318 318 317 315 315 316 316 316 316 319 323 326 331 330 329 332 331
314 314 314 314 314 314 314 315 315 314 313 313 313 313 310 308 307 306 306 305 305 306 306 307 307 307 308 308 308 307 308 311 314 316 317 318 316 312 313 312 313 313 313 315 316 316 314 314 312 313 318 315 319 321 322 323 319 328 331 325 331 326 316 318 318 317 319 319 318 317 316 317 317 316 315 315 316 316 316 316 319 322 326 331 331 328 330 330
313 313 313 314 314 314 314 314 314 313 313 312 311 311 310 308 306 306 306 305 305 305 306 306 306 307 307 308 308 308 311 313 315 317 318 316 314 312 313 313 313 313 313 315 316 316 314 314 312 312 316 315 319 320 320 322 318 323 329 329 325 319 320 319 317 319 319 318 318 318 317 317 316 316 315 316 316 315 317 316 317 320 323 328 330 327 328 328
314 313 313 313 314 313 313 313 314 313 312 312 311 310 310 309 307 306 306 306 306 305 305 306 306 307 307 307 307 311 314 311 314 319 317 313 312 312 312 312 313 313 313 314 314 314 314 313 312 313 316 316 318 317 318 320 319 319 320 323 320 318 322 318 317 320 319 319 319 318 317 316 316 316 316 316 317 318 318 316 317 318 318 324 329 327 326 326
314 313 312 313 313 312 312 313 313 312 313 312 311 310 310 310 307 306 305 306 306 305 305 305 306 306 307 308 307 313 316 310 316 319 314 312 312 311 312 312 313 313 313 314 314 314 315 314 313 316 316 316 318 316 317 317 318 320 316 317 319 320 321 317 318 319 319 321 319 318 316 316 317 316 318 317 318 320 318 319 322 319 314 319 326 326 326 326
313 313 312 312 312 312 312 312 312 312 312 313 312 312 311 310 308 306 305 306 306 306 305 305 306 306 308 309 308 314 318 314 317 318 312 311 312 312 312 313 314 313 314 314 315 315 316 315 314 316 316 315 316 315 316 316 317 320 317 317 318 319 319 316 317 317 319 320 318 317 315 317 318 316 317 317 319 319 316 317 319 316 312 316 324 325 324 325
313 312 312 311 311 311 311 311 311 311 312 312 312 312 311 310 308 307 305 305 306 305 305 305 306 306 308 311 312 315 316 316 317 315 312 312 311 312 312 313 314 315 316 316 315 315 315 316 315 316 316 315 316 316 316 315 315 318 317 317 317 317 317 316 317 317 318 318 316 316 317 318 319 317 317 318 321 320 315 315 317 316 314 317 323 324 322 324
314 313 312 311 310 310 310 311 311 311 311 311 312 311 311 309 308 307 306 306 306 305 306 306 306 306 308 314 317 315 315 317 317 313 311 312 311 312 313 314 315 315 316 315 314 314 315 317 316 315 315 316 317 316 317 316 315 316 318 318 317 316 316 316 316 317 317 317 316 317 319 319 317 316 317 320 321 320 317 318 320 320 320 319 321 321 319 322
314 313 312 311 311 311 310 310 310 310 310 311 311 311 311 309 308 307 306 306 305 306 306 306 307 307 308 313 314 313 316 317 315 313 311 311 312 312 313 314 314 316 316 315 315 316 317 317 317 317 317 317 317 317 318 318 317 317 318 319 318 317 316 316 316 316 317 317 316 317 319 319 316 316 318 320 320 318 318 320 319 320 323 320 319 319 316 318
314 313 312 312 311 311 310 309 309 310 310 311 311 311 311 310 308 307 306 306 306 306 306 306 308 309 310 313 311 311 317 317 314 313 311 311 313 312 313 313 314 317 317 316 316 316 317 317 316 317 316 315 317 319 318 318 317 317 319 318 318 318 317 317 317 316 318 317 316 317 319 318 316 317 319 318 320 317 317 321 319 319 321 317 318 319 316 316
313 313 312 312 311 311 310 309 309 310 309 310 310 310 311 310 308 307 307 306 306 306 307 307 308 310 312 311 312 314 316 316 314 312 311 312 312 312 313 314 315 316 316 317 316 316 316 316 317 318 316 316 317 317 317 317 317 319 320 319 317 316 318 318 318 318 317 318 318 317 316 318 318 319 319 318 321 320 317 320 320 320 321 318 318 317 316 315
313 312 312 311 311 311 309 309 310 310 309 310 310 310 310 309 307 307 306 306 307 307 308 308 308 311 312 309 314 316 315 314 312 312 312 312 312 312 314 314 315 315 316 316 315 315 315 317 319 320 317 318 317 315 316 317 318 318 318 321 319 316 320 320 317 318 317 317 319 316 314 322 325 319 318 318 321 320 319 321 320 320 321 321 320 318 317 314
313 312 311 311 311 310 309 309 310 310 310 311 311 310 309 308 307 306 306 307 307 308 309 309 309 311 310 310 315 316 314 312 312 312 313 313 313 314 315 315 315 315 315 315 314 315 316 317 317 318 317 318 317 314 317 318 318 319 316 324 325 318 322 322 316 318 317 316 318 316 315 321 323 318 318 319 319 320 320 321 321 320 320 321 322 321 320 316
312 311 311 310 310 309 309 309 310 310 310 311 310 309 308 307 307 306 306 307 309 309 309 309 310 311 309 312 315 314 312 313 313 313 313 314 314 314 315 315 315 315 315 315 315 316 316 317 318 319 317 316 317 318 319 318 319 320 317 324 326 319 324 324 317 319 318 316 317 316 317 320 319 318 319 317 317 319 320 321 321 321 321 320 321 321 321 318
312 311 310 309 309 309 309 309 309 310 311 311 309 308 308 308 308 307 307 309 310 309 310 311 312 311 310 313 316 314 312 315 314 313 314 317 316 315 315 315 315 315 315 315 317 317 316 319 319 319 318 317 321 325 325 322 323 324 320 323 324 318 322 322 318 319 319 319 317 315 317 320 319 318 319 318 319 320 321 322 322 321 321 321 320 319 320 319
312 311 309 309 309 310 310 309 310 310 310 309 308 309 310 310 309 308 309 311 311 311 312 314 311 309 310 311 314 316 315 316 314 313 315 318 317 315 315 316 316 315 316 316 317 317 316 319 318 316 319 320 323 328 328 321 321 324 319 320 325 320 319 322 320 319 319 319 318 317 318 319 320 319 318 318 320 320 321 323 324 323 322 322 322 321 320 319
311 310 309 309 310 309 310 310 310 310 309 308 309 311 311 310 310 310 311 312 312 309 310 312 310 310 310 309 314 317 317 316 314 313 315 317 316 315 316 316 314 315 317 317 317 317 318 320 323 321 318 318 318 326 334 327 324 326 320 319 323 320 318 322 321 318 318 318 318 319 318 318 320 318 316 316 318 319 320 321 322 323 322 322 323 323 321 319
310 310 309 309 310 310 310 311 311 310 309 309 311 312 312 313 314 314 314 313 311 308 308 311 310 312 314 313 317 318 316 315 313 313 315 316 315 315 317 315 317 318 317 318 316 315 322 324 324 325 318 317 318 321 333 332 325 327 327 325 324 319 317 319 318 316 316 317 319 319 318 318 317 317 316 315 316 317 318 319 319 320 320 320 321 321 321 320
310 310 309 310 311 311 311 311 310 310 310 312 312 312 313 316 316 314 314 315 312 309 311 312 311 313 318 318 318 316 315 314 314 315 314 314 316 316 316 316 320 320 318 324 318 315 329 329 323 329 325 321 320 320 324 324 320 323 327 325 322 320 317 317 319 317 317 316 320 322 319 318 316 315 315 314 315 316 317 319 319 319 319 318 319 319 319 319
310 310 310 311 311 311 311 311 310 310 311 313 315 317 316 315 314 311 313 314 311 310 313 315 313 315 318 316 315 314 315 316 315 316 315 314 316 315 316 318 319 319 320 325 321 319 332 330 324 333 330 321 319 319 320 319 320 324 326 322 322 324 318 316 318 318 317 315 319 323 318 316 315 313 314 314 314 315 316 318 318 319 318 317 319 319 318 317
310 311 311 311 311 312 312 312 311 310 312 314 317 319 317 313 312 312 313 311 309 310 313 314 313 315 316 313 314 315 316 318 317 318 316 314 316 316 317 319 318 320 320 319 322 322 325 326 328 331 326 319 318 319 321 323 326 328 326 322 324 327 320 317 319 318 317 316 320 324 318 316 315 314 314 313 314 314 314 316 317 317 317 317 317 318 318 318
312 312 311 311 312 312 312 312 311 310 312 314 316 317 316 311 310 311 312 311 311 312 314 314 313 316 316 313 314 316 316 317 319 320 316 313 317 318 318 318 316 320 319 319 323 321 319 324 327 323 319 319 318 320 324 324 326 330 327 323 325 327 320 318 319 318 317 316 318 322 321 318 316 317 319 316 314 314 314 315 317 318 318 318 318 317 318 318
314 314 313 312 312 312 313 312 312 310 311 314 315 316 316 311 308 311 313 313 314 315 314 313 314 316 317 314 314 317 315 316 320 320 315 314 317 317 317 317 316 319 320 321 324 322 322 322 320 318 319 323 321 321 328 324 319 326 330 330 328 324 320 320 321 320 321 321 321 321 320 322 324 324 325 322 317 315 316 316 317 319 320 319 320 320 318 319
315 315 314 313 313 313 314 314 313 313 312 313 314 314 315 311 308 310 313 313 314 315 312 311 313 314 315 314 315 317 315 316 319 317 314 315 316 316 317 314 314 319 320 320 321 321 322 318 317 318 319 326 326 322 328 328 319 319 325 328 327 325 324 325 326 323 321 322 323 319 317 326 332 324 319 317 315 314 317 318 320 322 321 319 321 321 319 322
316 316 315 315 314 314 315 317 316 315 314 312 312 313 312 311 309 310 314 314 314 313 310 310 311 310 313 315 316 317 314 315 316 315 314 314 315 315 316 315 315 318 318 318 319 319 320 318 322 325 322 326 327 321 324 328 322 316 319 324 329 333 330 329 330 322 317 318 319 318 317 322 323 315 313 315 313 313 313 314 318 321 321 321 321 320 322 327
318 317 317 316 315 315 316 319 316 315 317 315 313 313 311 310 309 311 314 316 316 313 310 309 308 309 314 314 315 315 314 316 315 314 314 315 314 313 315 316 315 315 317 320 321 318 318 320 323 328 327 326 325 322 320 324 324 320 323 326 331 332 327 329 332 323 320 322 324 326 322 321 321 315 316 317 313 315 315 316 317 315 317 319 319 321 326 331
319 318 318 317 316 317 317 317 316 315 317 314 311 311 311 310 309 311 315 315 314 313 311 309 308 310 314 313 313 313 313 316 316 316 314 313 314 314 316 317 316 318 318 320 322 319 319 323 324 326 327 326 327 327 324 323 323 324 325 327 332 332 329 336 335 327 326 321 323 330 322 318 326 328 325 320 315 317 319 321 321 316 315 314 317 325 331 336
319 319 319 319 318 317 316 317 317 317 317 313 310 310 310 310 309 313 317 312 311 312 310 310 310 312 315 313 313 312 313 316 317 317 314 313 314 313 315 315 317 317 314 320 326 321 319 321 324 325 325 327 327 327 328 326 322 324 325 328 334 334 333 336 333 327 326 319 320 330 322 314 320 324 322 317 316 321 321 321 320 318 320 318 322 333 335 336
317 318 319 319 318 317 317 318 317 318 318 313 310 309 311 313 311 312 311 310 314 314 309 309 312 314 315 314 313 313 316 318 317 316 314 315 315 313 314 313 317 321 318 325 330 322 317 315 317 322 322 325 325 322 324 327 323 324 329 332 333 336 337 338 335 327 319 318 323 329 324 314 316 323 323 317 320 324 320 319 319 325 333 329 328 334 336 337
316 317 318 318 318 317 318 318 318 319 317 311 310 311 313 317 316 311 308 310 318 316 309 310 313 314 313 313 313 314 317 317 316 315 315 316 316 316 315 313 320 328 323 324 325 321 320 317 317 320 317 320 325 321 321 326 327 329 334 332 325 331 338 335 333 325 316 319 325 327 325 316 315 323 323 320 324 321 318 319 321 327 335 333 332 336 339 341
315 317 317 317 318 317 318 319 319 319 314 309 312 316 315 315 314 313 312 311 315 316 313 313 314 313 312 313 313 315 319 320 316 315 318 319 317 317 317 316 321 325 320 321 322 320 324 323 320 318 316 319 325 323 321 325 330 329 328 324 316 320 328 327 328 326 321 321 321 322 325 318 315 318 318 321 324 319 316 317 323 331 336 337 340 343 341 340
314 316 316 316 317 317 318 318 318 317 311 309 316 323 320 313 311 314 314 311 314 317 316 314 314 313 313 313 313 314 318 320 316 314 317 319 317 316 316 319 320 322 324 324 323 322 324 326 321 316 317 319 321 322 319 321 327 325 321 321 319 320 321 322 324 324 324 325 321 319 320 321 321 320 320 321 318 319 320 318 325 335 338 343 347 348 346 341
313 315 316 316 316 316 317 318 318 314 311 312 317 320 317 311 311 313 312 312 316 318 317 315 314 313 312 313 314 314 316 317 316 315 317 317 317 316 316 316 316 322 329 324 320 322 322 325 323 317 318 320 319 320 321 323 323 322 323 321 320 325 326 325 325 322 325 327 322 317 319 325 326 322 322 320 316 320 323 319 323 325 328 336 340 342 346 343
310 314 315 316 316 316 316 317 318 314 313 316 317 315 312 309 312 312 312 316 319 320 318 315 314 313 312 315 315 314 317 319 316 316 319 317 317 317 316 315 314 319 324 318 318 320 317 323 326 318 317 321 319 318 319 321 319 320 324 320 319 326 323 323 326 326 326 325 321 320 324 328 325 320 321 318 315 317 316 316 317 316 321 328 331 335 337 336
309 311 314 315 315 316 316 316 317 315 315 318 315 312 310 311 316 317 316 320 320 319 316 313 315 315 312 315 317 313 316 322 319 316 319 317 316 317 316 316 314 314 316 315 319 321 317 322 323 316 316 319 319 318 319 320 318 318 321 320 324 327 319 318 322 320 319 318 318 320 322 321 317 315 317 314 313 315 314 316 317 317 321 322 327 336 332 327
309 310 311 313 314 316 316 316 317 314 315 317 313 312 312 313 320 321 320 321 319 317 317 315 317 316 313 316 319 316 316 321 319 316 319 318 318 318 316 316 315 314 314 312 317 324 325 325 321 317 318 317 317 320 321 322 320 321 323 321 322 323 322 325 325 320 318 317 319 319 316 314 313 313 315 315 314 314 317 320 320 321 322 319 325 333 331 328
308 309 310 310 312 315 316 315 316 314 315 315 312 314 316 315 318 320 320 321 319 317 319 319 319 317 315 316 319 318 316 318 318 317 318 318 318 319 316 316 317 314 314 313 314 320 322 320 319 317 319 320 319 319 320 319 319 324 326 322 323 326 326 326 322 320 319 317 321 321 316 313 313 312 313 315 316 315 317 321 320 321 322 322 325 327 331 337
307 309 311 310 309 313 316 315 314 314 315 314 312 315 317 315 316 318 318 319 320 319 319 322 321 317 317 317 318 319 316 317 319 318 317 316 318 320 316 315 317 315 313 314 315 320 321 317 317 317 318 319 319 319 321 321 320 323 322 318 323 327 327 326 321 321 321 318 318 318 315 314 314 314 314 316 318 317 316 319 320 322 323 322 325 330 338 344
307 309 312 310 309 312 315 314 314 315 314 313 312 314 315 314 314 315 315 317 320 320 321 325 324 318 318 318 318 318 317 317 318 318 317 316 316 319 316 314 317 317 313 313 315 319 318 314 317 318 316 318 319 320 321 321 320 322 321 320 321 320 322 324 322 321 322 321 319 316 314 314 313 314 315 317 318 318 318 320 322 324 323 323 326 337 350 351
306 308 311 312 312 313 314 313 315 316 313 310 310 311 313 315 315 314 315 317 318 318 320 324 324 322 321 320 318 318 317 318 319 318 317 315 315 319 318 315 318 318 315 315 316 317 316 316 322 322 319 321 324 323 319 318 319 320 319 320 320 318 320 320 319 320 320 322 326 320 314 313 313 313 316 318 318 320 322 322 321 322 322 322 326 337 350 351
305 306 309 312 313 313 313 314 316 315 312 311 311 311 312 315 316 316 317 317 316 317 318 319 321 322 324 323 321 319 318 318 319 319 318 316 316 319 320 317 317 318 317 316 316 317 320 322 326 325 321 320 322 323 320 316 317 318 318 318 317 318 320 319 322 325 321 322 328 323 316 314 313 316 318 317 316 321 327 323 319 320 320 321 326 335 342 341
305 306 309 312 312 312 312 313 315 314 312 312 312 312 313 315 316 318 318 317 317 317 317 318 320 319 321 323 322 322 319 316 318 319 319 317 316 321 326 322 319 319 318 317 316 317 320 321 320 321 321 320 321 324 324 320 318 319 320 320 318 320 322 323 327 329 325 323 322 319 318 315 316 323 324 318 318 323 324 320 317 321 325 329 334 339 341 340
304 305 308 311 310 311 311 311 313 314 313 313 313 313 314 315 315 317 318 317 317 317 316 317 319 318 320 322 322 323 320 317 319 319 319 319 317 321 327 326 322 319 318 320 320 317 318 321 320 320 321 322 324 325 324 322 320 321 326 325 320 319 320 321 322 321 322 325 322 319 319 315 318 328 326 320 321 321 320 320 321 322 323 327 333 338 343 345
303 303 305 308 309 310 311 310 311 312 313 313 314 314 314 314 315 316 317 317 317 318 318 318 319 320 322 321 321 322 320 319 321 320 321 323 321 322 324 325 324 321 320 324 323 318 321 324 321 319 319 319 323 325 326 324 321 321 326 325 320 319 319 318 320 318 319 323 321 319 317 314 316 321 321 321 321 319 320 324 323 319 319 323 327 332 336 337
303 303 304 306 308 310 310 310 310 311 312 312 313 314 314 314 315 316 316 317 317 317 318 319 319 319 320 320 320 321 320 319 320 320 323 325 322 321 320 321 323 321 320 325 326 325 327 325 318 317 318 317 323 328 327 324 322 320 322 322 320 321 319 317 320 320 317 318 317 317 317 315 315 315 316 320 320 317 319 321 321 320 323 325 324 325 327 329
303 303 303 305 307 309 310 311 310 311 312 311 312 313 314 314 315 316 316 316 316 316 317 318 318 318 319 319 318 320 319 318 318 319 321 322 321 320 319 319 320 319 319 321 324 325 324 322 319 318 318 319 324 327 322 319 321 320 320 320 320 321 320 318 318 317 316 317 317 316 316 316 315 313 314 317 317 317 317 319 321 321 322 323 322 322 323 324
302 302 303 305 307 307 308 310 310 309 310 311 310 311 313 314 315 316 315 315 316 316 316 317 317 317 318 317 318 319 318 318 318 319 318 319 320 319 318 319 318 318 321 321 322 325 324 322 321 319 319 321 321 321 319 319 320 319 319 319 319 320 320 320 318 317 317 318 317 316 318 318 315 313 314 318 319 317 315 317 319 317 317 320 319 319 320 321
301 301 303 304 305 305 306 307 309 309 309 310 310 311 312 313 314 315 315 315 316 315 315 316 317 316 316 316 317 317 316 317 318 318 317 317 320 319 319 321 317 316 321 321 320 323 323 322 322 319 319 321 319 319 319 318 319 319 320 320 319 319 319 318 318 318 318 319 318 318 319 319 316 314 314 317 318 317 315 317 318 317 316 317 317 318 321 321
301 301 303 304 304 305 305 305 308 309 308 308 310 310 310 311 313 313 314 315 315 315 315 315 315 316 316 315 316 315 315 317 318 317 315 315 317 318 318 321 320 316 318 318 318 319 319 320 321 320 319 320 319 318 319 318 318 319 319 320 319 319 318 317 317 318 318 319 318 318 319 318 315 314 315 315 316 317 317 316 316 316 316 316 317 319 320 319
300 300 301 304 304 304 304 305 307 307 307 307 308 308 308 310 311 312 313 314 315 315 315 314 315 316 316 315 316 315 315 315 316 317 316 314 316 318 317 320 321 318 317 318 318 319 318 318 318 319 320 321 319 319 320 318 318 318 318 319 318 318 319 317 317 317 317 318 318 318 319 317 315 315 316 316 315 316 317 316 315 315 315 316 317 318 319 319
300 300 300 301 303 303 304 306 306 307 307 306 307 307 308 308 309 311 311 312 314 315 315 314 314 315 316 316 316 315 316 317 318 318 317 317 318 319 318 319 320 318 317 317 317 317 318 317 317 318 320 320 319 320 320 318 318 319 320 319 317 318 318 318 318 318 317 317 318 318 317 316 315 316 317 317 315 316 317 316 315 315 315 316 318 319 320 319
Wind_Speed
12 11 10 9 7 6 5 5 5 4 5 5 3 4 5 6 8 9 9 9 8 7 7 7 7 6 6 5 4 4 3 3 2 3 4 4 4 4 6 7 5 5 5 4 4 3 1 2 4 3 1 1 2 1 0 0 2 4 3 3 1 2 0 2 4 4 4 4 6 6 5 7 4 1 1 2 5 2 2 3 3 7 7 7 11 22 29 28
12 12 10 9 7 6 6 5 4 4 5 6 4 4 6 7 7 8 8 8 7 7 7 8 7 7 6 5 5 4 3 3 2 3 6 6 4 4 6 5 4 5 5 4 4 2 1 2 5 2 4 1 1 1 0 1 2 3 2 3 3 4 0 3 1 1 2 6 7 6 6 5 5 5 2 1 2 1 3 1 4 7 6 8 13 21 25 27
12 12 10 8 7 6 6 5 5 5 5 7 6 4 6 6 6 7 7 7 7 7 7 8 8 8 7 6 5 4 2 1 0 4 8 8 6 6 5 4 4 4 5 4 3 1 2 5 7 3 5 0 2 2 1 1 1 2 3 3 5 5 2 4 3 2 1 7 9 5 5 3 3 5 3 3 4 3 5 4 4 3 4 6 9 16 22 23
11 12 11 8 8 7 5 5 5 4 4 5 5 4 5 5 6 6 6 7 7 7 8 8 8 8 7 6 4 3 2 3 1 4 9 10 8 7 5 4 4 4 5 4 3 4 6 8 6 3 4 1 2 2 2 2 1 1 3 4 5 3 2 4 2 3 3 6 9 5 5 4 3 4 3 5 4 3 6 7 8 9 10 11 8 13 19 19
11 11 10 9 8 7 6 5 4 3 3 3 4 4 4 5 6 6 6 7 7 8 8 8 8 7 7 5 4 4 3 2 2 4 10 12 10 8 6 4 4 4 4 4 4 3 6 6 2 2 2 1 1 3 2 4 2 1 1 4 3 2 3 4 2 4 4 5 6 5 6 3 3 2 4 7 5 5 6 7 10 10 12 15 13 14 15 15
12 11 11 9 9 8 6 5 4 3 3 2 3 4 4 5 6 6 7 6 7 8 8 8 7 7 6 5 4 4 3 2 1 4 10 12 10 8 6 4 3 3 4 4 3 2 4 3 2 2 1 1 3 3 3 3 3 2 1 1 2 2 4 2 2 4 4 7 5 4 2 2 4 1 3 7 7 7 6 6 8 8 13 19 17 15 13 12
13 12 12 11 10 8 6 5 4 4 3 3 3 4 4 6 6 7 7 7 7 8 8 8 7 6 5 5 5 2 2 2 2 6 10 10 10 8 6 4 4 2 3 3 1 1 1 1 1 3 2 1 3 4 3 1 4 5 2 1 2 4 4 1 0 2 5 7 2 2 3 2 5 3 1 4 8 7 6 5 6 8 15 18 14 13 13 14
12 13 14 13 10 8 6 6 5 4 4 4 5 5 5 6 7 7 7 7 7 7 8 7 6 6 6 7 5 3 1 3 4 8 10 10 9 7 6 4 4 2 1 0 2 1 1 1 3 3 1 2 4 4 3 4 3 3 3 2 2 2 1 1 2 3 4 4 2 4 3 3 6 4 1 6 9 7 7 4 7 10 13 14 12 12 11 12
11 12 14 14 12 9 7 6 5 5 4 4 5 6 5 6 7 7 7 8 7 7 7 7 7 6 7 6 4 3 2 3 7 9 10 10 8 6 5 4 3 1 1 2 3 1 2 1 3 3 3 3 3 4 3 5 0 2 4 3 3 1 1 2 2 2 1 1 3 3 2 4 4 2 3 8 10 8 6 6 7 10 10 10 11 12 12 11
12 12 13 14 13 11 9 8 6 6 5 4 4 5 4 5 7 7 7 8 7 8 7 7 7 6 8 4 5 2 3 3 8 10 11 9 8 6 5 3 2 1 2 2 1 2 2 2 3 3 4 1 3 2 3 5 2 2 5 4 5 4 2 2 2 1 0 1 3 3 2 5 2 1 4 8 8 6 7 6 7 9 9 10 9 10 13 13
12 12 12 13 13 12 12 10 8 6 6 5 4 5 4 5 7 7 7 7 8 8 7 7 7 7 7 4 4 3 3 4 8 10 11 9 7 6 4 3 2 1 2 1 2 2 2 3 3 1 1 2 2 2 3 3 2 4 7 5 2 3 1 1 2 2 1 2 1 4 2 5 2 0 7 8 4 5 9 8 7 8 8 9 9 9 11 13
12 12 12 12 12 13 13 11 8 7 6 5 5 5 4 5 6 7 7 7 7 7 7 7 8 8 6 4 3 4 3 5 7 9 10 8 7 5 3 2 2 2 1 1 3 3 2 1 3 3 1 2 3 2 1 1 3 5 7 5 2 3 2 3 2 2 2 1 2 3 3 6 2 6 11 7 2 5 8 8 7 8 7 7 9 8 8 12
13 12 12 12 12 12 12 10 8 7 6 5 5 4 4 5 6 6 6 6 6 6 7 7 8 9 5 1 2 3 4 7 9 9 9 8 7 5 4 3 2 1 1 1 4 4 4 1 5 5 1 4 3 1 1 2 3 3 3 5 1 5 4 7 2 2 4 0 3 2 1 7 6 10 11 6 5 6 7 8 7 7 6 6 7 7 8 11
13 13 14 13 12 11 10 9 8 7 6 5 4 4 4 5 5 6 5 5 5 5 6 7 8 7 3 0 1 3 6 9 10 11 10 8 8 7 5 4 3 2 1 3 5 5 4 1 5 5 2 4 3 1 3 4 3 2 1 3 3 2 4 6 1 4 4 1 3 6 2 7 8 11 10 6 7 9 7 7 6 6 6 6 6 7 8 10
14 14 14 13 12 11 10 9 8 6 5 4 5 5 5 6 6 6 6 5 5 6 6 7 8 6 2 1 0 5 8 8 9 11 10 9 9 7 5 6 5 4 4 5 6 5 4 3 5 4 1 2 4 4 3 3 3 3 2 3 3 3 4 6 1 6 5 2 2 6 2 7 8 10 8 4 4 8 7 7 6 6 6 7 6 7 7 9
15 14 14 13 12 11 10 9 8 6 5 5 5 6 6 7 7 7 8 7 7 7 7 6 7 5 2 1 1 5 6 4 8 11 10 10 8 7 8 8 6 6 5 4 5 5 5 5 3 2 2 2 4 5 4 4 4 3 3 2 3 2 2 4 3 2 5 2 1 2 2 4 5 6 7 5 3 6 5 7 7 7 7 8 7 7 8 7
14 13 13 13 12 11 10 8 7 6 5 6 6 7 8 9 9 9 9 9 9 8 6 4 6 4 1 1 2 3 4 5 9 11 10 9 8 10 9 6 4 4 4 3 3 3 4 4 1 1 2 3 3 5 5 3 3 4 1 2 4 3 3 2 3 3 3 4 1 2 3 6 7 8 8 6 2 5 6 8 8 8 8 8 7 7 8 8
12 12 12 13 12 10 9 7 6 5 6 7 7 8 10 11 11 10 11 11 9 7 3 2 4 3 2 2 3 3 4 7 9 10 10 8 9 10 6 2 3 4 4 4 3 3 3 3 2 2 3 3 2 5 4 3 4 3 3 2 3 2 3 2 3 2 2 3 2 3 4 8 11 12 10 9 5 6 8 9 8 8 8 8 8 7 8 9
13 12 13 13 12 10 9 7 6 5 6 8 9 12 12 10 9 7 7 7 6 4 2 3 4 3 2 4 3 4 8 10 9 8 8 7 7 6 3 3 4 5 4 3 2 1 2 3 4 3 1 2 3 5 6 7 7 7 5 5 3 2 2 3 3 2 1 2 4 6 7 9 10 11 11 10 8 8 9 9 8 8 8 8 8 8 9 9
14 14 14 13 11 10 9 7 6 6 7 9 12 12 8 6 5 2 1 1 2 2 2 4 5 3 1 2 4 9 11 8 5 4 6 6 6 5 3 3 5 5 2 3 1 0 4 5 1 3 5 7 6 7 7 5 6 7 5 4 3 3 1 3 2 4 1 2 5 7 7 10 10 11 12 10 9 7 8 9 9 9 9 9 9 10 11 10
14 14 14 13 11 10 8 6 6 8 8 11 12 7 3 4 3 2 2 2 5 2 3 3 5 4 3 6 10 10 7 4 2 1 6 6 5 5 2 3 5 2 1 4 3 2 5 4 5 7 8 8 7 6 6 4 5 6 5 4 3 1 1 2 1 5 3 2 5 4 5 12 11 10 11 9 9 10 9 10 11 12 11 9 10 12 12 10
13 12 12 13 11 9 7 6 7 9 9 10 8 2 0 2 3 4 5 1 4 2 5 4 4 4 3 7 11 7 3 3 2 1 5 5 3 4 3 3 5 3 1 4 4 4 5 1 8 8 7 4 2 5 7 5 6 5 4 5 2 2 2 2 3 4 2 2 4 5 6 12 12 10 11 10 11 12 10 10 10 11 10 9 10 12 12 10
13 12 12 11 10 8 6 6 7 8 10 10 5 1 1 2 3 4 4 3 2 1 3 3 3 3 2 2 7 5 4 4 3 3 6 6 2 3 5 5 5 4 2 4 5 4 2 5 9 7 5 6 5 5 8 6 4 4 4 5 1 3 1 2 4 4 2 1 3 4 5 11 12 7 9 11 11 11 9 9 9 8 9 11 11 11 11 11
12 12 12 11 9 7 6 6 6 7 10 8 4 2 1 3 2 2 2 2 2 2 1 3 3 4 4 3 7 6 3 3 4 4 8 7 4 3 4 5 6 5 3 6 8 7 4 7 4 4 5 7 5 4 7 6 2 1 3 5 3 2 2 2 2 3 3 3 3 4 5 8 7 4 6 7 4 6 7 6 8 9 10 11 10 11 11 9
12 12 11 11 9 7 6 5 5 6 8 6 4 5 2 2 3 1 2 2 1 1 1 3 1 3 6 5 7 7 3 1 1 3 9 9 5 3 2 3 4 4 6 7 7 5 6 6 2 6 3 5 7 3 3 6 2 4 1 5 6 5 5 2 3 5 5 5 4 4 4 7 6 6 8 7 6 8 6 4 8 10 9 9 9 12 10 7
12 12 12 10 8 7 5 3 4 6 5 3 3 4 4 3 3 1 3 3 2 2 2 3 2 5 8 5 5 4 3 1 2 1 8 6 2 2 3 2 2 4 7 6 4 2 3 1 4 6 5 6 7 2 2 5 6 1 4 4 6 7 6 4 5 4 1 3 4 3 2 6 8 9 10 8 9 12 9 8 10 10 9 9 9 9 7 6
13 12 12 10 8 8 4 3 6 7 4 2 4 4 4 4 3 1 4 4 3 3 5 1 1 6 8 6 6 6 3 4 1 3 4 3 1 3 3 4 2 3 3 4 2 2 2 3 5 5 5 6 5 2 4 6 7 3 5 4 6 7 6 5 6 3 2 3 5 3 3 3 7 9 9 7 9 10 9 11 12 10 11 10 8 7 7 8
14 13 12 11 9 7 4 4 7 5 2 1 4 6 5 4 3 1 5 2 2 2 4 1 1 5 5 4 5 5 3 4 5 1 1 3 0 4 3 5 5 5 2 6 4 5 2 5 5 5 5 3 4 4 5 8 6 5 5 5 6 7 6 5 6 2 1 2 5 4 1 2 7 8 7 4 5 8 9 12 12 11 11 9 7 8 7 7
13 14 13 12 10 6 3 3 4 4 2 3 4 8 7 4 1 3 5 2 1 1 1 2 3 3 3 4 3 3 2 2 3 2 1 3 1 3 3 5 5 6 2 6 6 4 1 5 6 6 5 4 4 2 2 6 4 4 3 5 5 5 5 5 5 3 3 2 5 5 3 2 6 6 5 2 3 7 9 9 9 9 9 7 6 6 4 3
10 14 14 13 12 9 5 2 2 3 2 3 6 10 8 3 2 5 3 3 2 1 1 2 2 3 7 7 2 1 3 3 1 2 2 1 2 4 1 2 4 4 1 5 4 1 2 1 2 4 3 5 4 2 2 4 6 5 6 7 7 6 5 4 3 4 3 4 7 7 8 5 5 5 5 4 4 7 5 5 7 6 6 3 1 4 5 5
6 11 14 15 13 12 7 2 3 2 1 4 11 11 7 3 3 5 5 3 2 1 1 1 1 4 11 11 5 2 4 3 1 4 3 1 2 3 1 1 4 4 2 3 3 4 5 2 0 0 0 3 6 5 5 4 5 7 5 5 4 4 4 5 5 4 1 6 6 5 5 5 5 6 4 5 7 6 3 4 5 3 3 2 3 5 6 5
3 5 12 16 14 12 7 2 2 3 3 8 10 6 5 3 1 4 3 1 1 2 4 3 3 6 9 8 6 5 5 2 2 5 5 4 4 3 3 4 4 3 1 3 1 3 4 2 2 2 2 3 7 5 4 6 5 6 5 6 4 2 3 3 3 0 3 6 4 3 0 3 6 6 5 8 9 5 2 2 0 2 3 4 5 6 6 4
3 4 9 16 14 12 9 3 3 5 6 8 5 4 5 4 5 6 4 2 2 3 4 4 5 8 9 7 5 5 4 3 4 4 3 5 5 5 4 4 6 5 3 5 3 1 2 6 2 2 2 2 6 6 3 1 0 4 5 6 5 3 1 3 4 1 4 5 4 2 0 3 5 4 7 11 9 7 3 2 4 7 6 7 6 6 6 5
4 5 8 15 14 12 11 6 5 7 7 5 4 4 4 5 6 5 5 3 1 3 3 5 7 9 9 5 5 6 3 1 6 5 3 5 5 6 5 5 5 4 4 4 4 5 4 5 3 6 3 4 7 6 7 7 4 5 5 6 6 5 5 5 4 3 4 4 3 3 1 3 2 3 7 7 6 8 7 6 5 4 4 5 6 7 6 5
3 4 6 11 13 12 13 9 5 5 4 3 5 4 7 7 4 3 5 3 1 2 3 6 8 8 6 2 2 7 4 2 5 5 4 6 5 6 6 6 7 5 5 5 2 3 5 5 6 4 2 8 9 5 6 7 2 3 3 5 4 6 5 3 3 6 4 1 3 2 4 5 4 6 9 7 9 9 9 9 9 9 8 6 6 7 6 4
3 2 3 5 8 10 12 11 8 4 2 4 5 6 7 5 3 3 4 3 3 5 7 6 5 5 5 2 2 6 3 3 5 4 3 4 3 6 6 6 9 9 7 6 3 2 4 4 5 1 1 5 7 3 4 4 2 2 3 4 5 5 7 3 3 0 3 2 4 2 5 6 3 7 9 8 9 7 7 9 7 9 11 9 8 7 5 3
4 3 1 1 3 7 10 10 8 5 2 4 6 7 4 2 2 2 1 1 4 7 8 5 2 4 5 3 3 6 3 2 4 4 3 3 2 5 7 4 6 11 9 6 3 3 5 2 4 2 2 4 1 4 2 2 3 5 3 6 3 2 3 3 1 2 2 4 4 2 7 6 3 6 4 3 2 3 6 7 6 8 9 8 8 8 7 5
4 3 2 3 4 4 6 9 9 8 4 2 7 7 2 1 1 2 2 1 3 5 5 4 3 4 5 5 4 6 5 4 5 5 4 4 4 6 9 4 5 12 11 6 4 3 4 3 5 1 3 5 3 4 0 4 1 5 4 4 4 2 1 2 2 2 1 3 5 3 5 5 6 7 1 3 6 7 8 7 5 7 8 7 8 7 8 8
3 3 2 4 7 4 7 10 9 6 3 4 8 6 2 1 2 1 2 2 3 3 4 4 3 3 5 6 5 5 6 6 7 6 4 4 5 5 10 8 5 11 12 9 6 3 3 4 4 1 1 2 4 2 4 1 2 2 1 1 2 3 4 3 3 4 4 3 4 4 3 5 8 6 6 5 7 6 9 8 6 8 8 7 6 6 7 7
2 2 1 4 9 9 11 11 6 3 2 4 5 3 1 1 3 3 1 3 3 2 2 2 2 4 6 6 6 6 5 5 7 6 4 6 5 4 7 8 5 7 11 11 7 2 2 3 4 2 3 0 1 4 7 8 4 2 3 3 2 1 2 1 2 2 5 4 3 3 6 8 6 5 7 9 8 8 8 5 3 5 5 5 5 5 5 5
1 1 1 6 14 15 13 8 2 2 2 2 2 1 1 1 2 3 1 4 2 1 2 2 2 2 4 4 5 6 5 4 6 6 3 5 5 3 5 8 8 7 8 9 7 5 3 3 4 2 1 3 6 6 8 11 10 7 6 7 7 5 4 2 3 2 2 4 4 3 7 12 5 6 7 8 7 7 7 5 3 1 3 3 4 5 5 5
2 2 1 8 17 17 11 3 1 3 2 2 3 2 2 2 1 2 1 3 1 0 1 1 1 1 1 2 3 6 6 5 6 6 4 5 6 4 4 6 9 10 8 8 8 6 4 4 4 3 4 5 6 5 3 5 5 3 4 5 5 4 5 5 5 4 1 3 4 4 5 13 4 7 5 6 6 6 6 5 3 1 1 1 1 2 2 3
2 1 2 11 20 15 7 3 3 3 3 3 4 4 4 3 1 1 2 2 2 2 1 0 1 1 1 0 1 4 5 5 6 7 6 5 5 4 5 3 8 9 6 5 5 3 2 3 3 2 3 3 4 5 5 3 0 2 3 3 4 4 5 5 5 4 3 4 4 3 6 12 2 5 1 3 5 5 4 4 4 2 2 3 4 5 4 4
2 1 0 10 17 11 4 5 5 5 5 3 4 5 4 3 4 3 3 3 3 3 3 2 2 2 1 1 2 2 2 2 4 5 4 4 4 1 5 2 5 7 3 3 4 5 4 3 4 2 1 3 4 4 4 4 1 2 4 4 6 7 6 3 2 2 2 7 8 5 8 11 2 5 5 3 1 1 2 2 3 4 5 6 5 5 5 6
1 1 1 3 7 5 2 3 3 5 6 4 5 7 5 3 5 6 5 4 3 3 2 2 2 3 2 2 2 1 0 2 2 1 1 1 2 2 6 6 3 4 2 0 2 5 5 4 5 6 6 6 4 3 3 2 1 2 3 5 7 9 10 6 3 3 6 10 9 6 9 14 7 3 6 5 6 6 6 7 6 4 5 6 6 5 6 6
1 2 1 0 1 3 2 0 1 2 5 7 5 5 8 6 3 5 6 4 4 5 3 1 3 4 3 3 2 1 1 2 2 1 2 1 2 2 3 5 6 3 1 4 5 2 4 3 6 8 9 9 7 6 6 6 6 5 7 9 9 10 13 9 4 6 11 9 7 9 13 17 17 8 2 4 7 6 6 6 7 7 6 6 6 6 6 6
1 2 3 3 1 2 4 3 3 3 3 6 5 4 8 9 3 3 6 5 5 6 3 1 3 4 4 5 4 3 2 1 2 1 2 2 2 3 2 4 6 5 3 4 4 3 4 2 5 7 8 7 5 4 4 7 9 11 11 11 10 10 12 12 11 14 13 7 9 14 12 14 23 16 5 6 9 6 4 6 7 6 6 6 7 8 8 7
2 1 1 3 2 3 6 6 7 6 4 4 4 4 7 10 8 6 6 5 4 5 4 2 5 8 8 8 6 3 3 3 1 2 3 3 1 2 4 3 3 5 5 3 3 3 5 3 3 3 4 4 3 1 1 3 4 5 6 8 9 9 11 15 18 18 12 8 11 13 9 12 21 14 4 6 9 6 5 7 7 5 6 7 7 8 9 9
2 2 3 2 1 3 5 5 6 7 7 5 3 4 7 12 13 9 6 5 4 6 7 7 9 12 11 9 7 5 4 4 5 5 4 3 3 2 0 2 1 4 4 3 3 2 3 3 0 3 3 5 4 3 2 2 1 1 4 6 7 10 14 16 17 16 11 10 13 13 8 12 17 11 3 6 8 7 6 6 7 9 9 7 7 7 8 9
2 0 1 2 2 1 2 3 7 7 8 6 5 5 5 9 12 9 6 8 7 6 9 12 11 11 12 11 9 9 9 8 9 7 5 5 3 2 3 2 0 3 4 2 2 3 1 1 2 4 2 7 7 5 3 4 4 4 6 7 9 12 13 12 12 11 10 12 15 15 14 15 13 7 8 10 8 5 8 8 9 11 11 8 7 8 8 9
4 0 2 1 3 2 2 2 5 5 6 7 7 8 8 9 9 8 5 8 9 7 10 15 12 6 8 11 11 12 12 11 11 9 8 9 6 4 4 3 4 3 1 2 1 1 1 1 2 4 1 7 7 5 6 6 3 5 9 13 16 14 11 10 9 9 11 13 13 11 11 14 10 4 7 13 7 4 10 13 11 11 10 8 8 8 9 9
8 4 0 1 3 2 2 2 4 5 5 8 10 10 9 8 6 6 4 6 10 11 11 14 12 6 6 12 15 15 11 9 7 5 5 5 3 2 2 2 4 6 5 4 3 2 4 4 2 3 3 6 6 5 5 3 2 6 12 16 17 13 11 11 10 11 13 11 9 9 10 12 11 5 7 13 10 8 11 13 13 11 8 6 6 8 9 10
Wind_Direction
190 176 177 184 183 182 177 163 158 157 156 162 173 184 184 185 188 190 196 200 203 206 206 209 212 214 215 225 241 258 274 272 240 191 200 203 213 233 212 214 231 234 239 238 225 219 259 292 251 216 158 174 148 178 272 318 61 63 82 106 217 224 214 267 225 191 150 155 183 194 159 134 166 203 119 37 46 72 83 70 63 32 39 83 118 137 145 152
190 181 180 182 182 180 174 161 156 163 168 175 181 186 189 190 192 194 200 202 205 206 206 209 210 212 217 226 237 252 271 255 221 225 225 220 224 211 193 203 222 231 236 227 219 206 62 310 272 179 115 114 241 117 54 290 90 103 126 129 218 206 132 322 273 178 127 151 174 192 170 145 177 174 129 167 235 147 117 108 75 59 50 86 118 136 146 154
189 184 181 178 180 178 174 162 169 180 180 189 196 188 184 189 197 200 203 202 205 208 208 210 210 212 218 221 232 252 248 162 157 238 222 213 205 186 177 194 208 219 218 204 204 220 229 286 287 199 124 190 246 108 106 325 117 159 118 125 241 206 161 342 11 358 284 152 154 187 170 146 186 154 133 181 188 185 180 187 123 125 175 152 144 146 151 158
196 190 187 181 178 184 183 167 180 195 189 196 199 186 175 183 199 206 206 203 206 211 212 211 210 211 215 220 226 223 176 98 294 216 190 190 181 165 162 181 190 200 205 207 223 241 259 291 294 193 135 228 260 90 158 225 181 164 116 167 235 183 123 318 352 354 330 133 148 167 123 119 179 147 154 155 141 239 230 209 189 190 183 172 172 163 162 164
201 196 190 184 181 188 187 176 182 186 184 194 190 180 172 181 197 206 208 209 209 212 215 213 211 210 211 215 204 198 151 96 275 197 173 173 162 155 157 158 163 185 193 206 226 249 268 284 315 124 101 199 194 77 209 225 150 109 142 175 224 124 114 290 328 4 356 94 113 112 111 148 154 136 175 150 155 230 234 211 202 196 176 171 174 170 170 171
204 198 189 186 187 190 189 184 180 178 175 176 186 186 183 186 189 202 211 212 213 214 217 214 209 207 207 202 187 184 153 152 263 166 169 164 152 155 150 141 136 157 180 190 227 297 278 297 51 125 117 149 174 161 210 227 125 127 236 89 13 91 123 276 337 359 25 82 88 112 138 151 115 193 211 162 190 221 218 191 182 190 174 168 165 162 170 179
204 197 190 188 189 190 195 192 182 183 183 180 190 189 197 198 189 198 208 212 218 216 215 213 207 204 192 169 164 141 124 218 221 162 169 157 151 155 139 132 122 139 180 174 273 321 253 356 15 185 129 124 189 177 179 134 93 115 178 330 41 85 110 202 190 19 56 93 131 138 102 120 149 206 237 198 227 223 219 188 136 140 150 151 154 165 178 184
208 207 203 200 198 194 193 196 194 194 198 199 197 193 201 203 197 200 204 210 217 215 216 208 202 198 179 162 143 79 22 225 176 162 167 155 151 148 137 130 121 142 204 199 293 301 142 236 240 201 128 235 182 150 132 88 59 108 165 207 100 79 117 162 95 53 61 98 97 85 101 210 192 181 202 233 239 227 213 176 113 117 132 145 160 176 184 188
216 218 217 216 218 215 205 198 200 205 208 211 207 203 201 200 205 206 202 208 212 213 213 200 199 193 180 169 113 102 239 198 162 163 164 156 151 148 148 136 129 146 343 284 263 168 138 191 236 193 178 224 141 121 110 100 285 204 155 151 112 101 177 116 74 55 48 64 63 70 322 277 224 206 264 241 231 217 180 145 131 127 138 160 171 179 185 190
220 222 223 225 229 232 228 211 205 214 211 214 215 205 199 202 206 207 204 207 206 207 204 193 193 182 180 164 93 144 239 178 170 167 161 159 155 153 151 133 148 168 2 289 193 108 147 189 240 209 175 143 96 89 87 115 193 169 122 112 119 146 181 114 127 227 36 38 71 90 300 291 278 320 270 255 240 199 162 160 162 144 158 178 180 187 190 192
222 224 226 229 232 239 243 226 210 215 209 210 213 194 197 207 205 208 207 204 203 199 194 188 184 176 171 134 117 188 244 180 178 165 160 163 156 157 157 150 175 142 34 56 128 126 171 215 262 226 148 70 79 47 53 120 139 126 111 88 104 148 268 55 138 211 70 37 75 105 298 290 30 300 235 244 256 177 169 185 181 167 179 185 187 193 194 201
221 222 225 229 232 241 244 225 207 215 209 203 200 185 193 206 201 206 206 206 204 192 182 179 179 174 147 98 152 205 221 170 165 159 159 158 155 161 149 152 197 178 18 48 182 196 173 287 31 86 162 114 103 59 80 158 113 124 108 90 327 11 337 254 182 182 114 40 260 111 330 296 196 228 242 240 224 157 168 186 187 190 196 192 196 198 200 211
217 221 225 227 234 241 234 210 204 214 195 180 182 181 197 197 191 198 204 208 203 181 173 170 174 172 143 93 207 196 179 156 148 153 153 150 154 154 141 145 172 178 290 235 192 171 139 40 75 111 143 101 120 215 130 54 77 123 98 100 64 18 322 258 209 135 115 42 289 90 307 281 251 246 262 255 189 149 162 192 197 201 207 205 205 206 213 218
215 222 224 230 235 229 215 198 204 205 174 166 178 184 190 178 174 182 186 193 186 166 162 159 164 168 145 202 214 151 157 149 147 152 149 150 145 134 134 140 137 151 172 161 158 137 111 71 88 98 61 95 133 163 58 27 46 107 71 56 76 80 292 288 176 140 138 307 2 85 179 268 279 271 281 274 184 158 180 212 220 222 223 219 215 216 224 222
214 220 223 228 225 210 200 195 200 193 169 174 181 174 168 161 160 159 157 160 157 153 150 152 160 148 103 307 240 138 147 148 154 154 149 151 142 131 133 131 122 121 129 130 124 104 87 89 85 83 28 34 84 86 57 15 11 62 87 330 346 147 265 311 347 159 163 276 35 98 200 272 282 280 298 323 143 152 189 225 245 244 237 233 229 223 225 230
210 219 224 217 205 199 198 193 190 190 182 179 170 157 147 144 141 136 142 143 140 145 135 145 167 143 108 222 128 138 156 168 164 159 154 153 147 137 130 122 113 112 120 117 102 88 72 72 69 102 117 60 80 95 64 30 349 360 107 228 275 170 249 307 317 214 153 138 342 144 223 271 285 290 312 343 105 148 192 231 241 237 236 234 231 228 226 231
205 219 218 198 193 197 193 188 183 183 171 156 146 139 135 131 128 126 130 129 131 139 119 122 165 148 77 104 117 167 189 179 169 167 161 153 146 143 134 116 108 112 103 85 79 64 49 53 50 161 80 67 99 95 68 38 308 315 54 217 247 189 175 233 284 292 108 107 250 248 239 252 272 280 288 299 207 174 212 239 244 237 237 236 227 227 225 222
206 214 202 184 190 189 180 180 180 170 144 136 131 128 127 122 119 119 124 124 113 107 75 49 128 142 259 192 166 185 169 160 165 166 160 150 146 150 146 113 112 92 56 41 34 38 38 32 56 78 31 17 85 96 103 201 201 201 199 202 266 235 176 210 249 263 88 95 251 276 271 256 266 275 274 272 236 209 228 236 242 243 239 242 235 226 224 220
205 202 187 177 180 175 172 177 176 163 138 130 129 123 115 109 107 110 124 129 110 103 183 196 140 140 214 199 171 120 130 142 148 156 158 149 149 154 135 106 99 79 70 50 11 36 77 43 53 93 166 230 191 144 164 197 171 163 176 160 172 208 253 254 254 277 108 112 250 249 256 259 262 271 276 275 253 224 234 239 244 250 244 244 242 235 231 223
191 187 179 172 174 173 172 176 169 154 139 134 134 124 113 110 94 86 145 186 204 171 171 182 160 136 109 132 127 116 120 124 125 158 163 153 145 135 101 68 56 48 85 138 157 262 83 83 149 186 194 210 211 183 172 176 140 128 120 108 148 158 291 281 269 306 5 115 255 242 251 266 264 267 268 272 273 251 238 239 239 242 243 241 240 243 239 232
177 180 176 170 173 173 168 172 164 153 149 148 146 135 136 150 125 158 186 262 254 190 104 136 125 107 115 133 143 137 119 87 41 130 164 164 137 129 128 50 77 49 256 153 137 8 63 100 216 219 202 203 209 180 144 107 88 94 104 74 21 155 217 258 247 300 349 80 270 284 290 274 263 262 264 267 276 263 232 224 232 233 234 238 239 245 246 244
162 164 165 166 166 163 168 174 165 160 161 160 161 157 255 146 133 157 148 167 253 172 118 130 91 69 97 136 160 158 90 81 48 311 188 165 112 141 157 79 115 179 235 117 90 28 51 195 239 234 202 154 117 121 106 90 86 80 95 90 13 279 205 297 324 312 1 119 272 334 334 283 272 259 256 252 250 255 238 222 232 232 232 241 239 243 249 251
163 154 152 159 157 158 168 162 155 165 169 166 170 188 28 62 111 154 140 111 209 193 132 147 118 115 96 146 192 174 98 134 155 247 207 157 122 164 142 117 143 163 136 128 129 109 107 247 244 225 170 112 74 77 89 77 72 82 99 109 250 278 149 273 306 304 278 193 272 337 323 283 284 275 259 252 242 256 260 243 245 235 227 236 237 241 245 247
172 162 156 155 152 156 152 136 141 165 175 177 196 218 109 48 67 170 166 97 168 222 224 191 154 157 159 169 187 168 128 147 146 199 197 161 143 153 144 152 148 140 169 162 141 145 204 256 233 153 128 115 106 72 87 92 29 343 127 136 205 258 131 187 288 320 329 344 347 360 326 284 298 324 286 280 277 273 270 261 262 250 235 241 250 253 246 241
170 167 162 156 155 153 136 128 142 155 170 185 222 231 225 7 1 177 149 69 199 291 317 213 198 178 169 141 163 172 133 109 58 193 183 167 152 137 163 174 141 164 201 168 134 158 233 268 145 133 110 93 110 111 129 134 98 323 245 175 181 160 135 121 14 23 19 340 326 30 353 288 306 314 281 293 316 293 285 277 260 255 249 245 250 253 249 245
170 169 164 161 160 152 136 128 149 151 159 187 227 232 238 270 318 198 117 53 305 256 142 174 177 176 171 144 159 154 105 189 317 114 153 161 177 117 152 190 106 177 196 162 139 173 226 324 88 131 126 90 97 114 204 142 109 313 253 192 156 124 113 94 56 48 52 270 283 67 104 272 301 296 274 276 282 278 286 282 261 256 253 239 240 250 249 248
183 177 173 175 165 154 146 130 150 150 146 198 220 217 232 242 265 259 82 46 297 203 141 173 257 168 171 170 164 137 155 202 74 57 118 137 256 53 125 193 130 178 194 117 146 231 153 88 72 98 101 96 107 144 210 138 114 224 241 161 126 109 115 114 92 94 214 260 315 14 128 241 287 282 274 269 269 278 284 276 266 256 251 244 245 252 239 233
199 193 185 187 173 156 139 123 149 152 109 107 187 195 204 210 234 55 88 88 263 148 135 219 171 146 156 156 142 117 170 175 125 223 347 84 103 42 97 196 169 187 189 113 179 255 146 150 166 137 103 121 170 215 206 135 120 236 220 143 123 119 128 114 97 99 347 1 314 312 112 236 267 272 288 290 278 280 266 259 262 259 259 256 246 243 237 234
197 202 200 195 183 173 154 125 146 147 71 47 139 173 174 174 190 68 89 158 206 96 109 154 130 136 133 119 110 90 85 77 123 221 354 79 47 46 135 205 166 174 189 112 168 245 119 174 182 139 134 184 199 264 215 140 142 220 155 93 66 74 79 77 97 102 32 1 258 232 169 233 266 262 273 283 274 270 261 260 262 264 274 273 249 232 208 180
173 193 204 198 186 192 196 192 203 165 47 40 135 150 145 124 84 98 146 214 163 89 27 126 153 157 145 135 128 135 100 51 58 103 55 91 15 24 130 188 93 132 17 51 101 257 334 197 162 112 155 184 149 72 35 129 137 124 87 62 41 27 35 44 61 78 51 286 256 221 189 198 275 272 241 221 232 237 245 290 292 304 334 341 169 170 162 155
143 179 197 196 189 192 191 212 230 201 56 124 139 138 123 65 66 135 194 224 132 108 106 142 181 146 155 155 154 156 100 62 132 128 114 115 55 27 64 104 59 73 44 44 46 325 348 18 229 358 183 129 99 62 18 29 88 94 81 79 60 349 12 17 360 51 147 255 267 258 204 176 248 262 240 252 257 224 175 355 327 338 17 66 154 181 188 182
111 158 183 191 193 191 182 155 194 166 126 145 141 120 94 81 191 201 203 206 168 185 163 165 183 161 161 153 148 157 126 109 179 151 143 144 162 186 174 179 153 97 181 193 152 336 332 278 241 348 328 128 105 76 19 1 30 77 97 101 98 324 9 356 307 183 226 247 264 289 225 193 244 254 256 273 275 246 160 34 325 180 205 217 209 218 222 206
100 117 165 187 193 188 179 142 141 154 147 152 136 66 80 128 211 216 201 208 193 171 151 147 158 156 153 146 160 164 122 140 181 165 154 142 165 207 233 221 177 137 179 185 144 133 290 303 315 83 311 197 138 135 140 286 120 133 137 132 140 146 139 247 259 264 262 260 275 309 279 248 279 284 248 249 263 274 301 301 206 188 202 228 236 237 234 217
99 109 156 185 192 192 192 171 139 155 157 149 109 84 125 185 218 190 179 221 172 102 113 132 135 144 155 163 177 166 121 162 174 148 138 137 156 205 234 248 206 126 110 151 162 168 193 286 227 174 215 192 177 181 164 154 164 179 155 137 158 162 164 203 208 214 249 275 289 296 245 205 220 276 245 232 260 284 303 303 279 245 224 237 255 254 242 229
87 105 140 177 190 201 204 197 182 173 164 124 103 132 180 204 219 169 173 205 162 69 74 112 120 139 175 198 187 178 154 169 180 146 148 167 175 192 194 209 203 163 133 164 206 166 178 249 238 202 180 171 182 198 146 123 124 229 141 117 182 191 158 159 191 183 179 297 285 252 236 210 202 261 262 253 267 279 293 297 299 296 281 264 257 257 249 226
59 75 120 159 189 207 210 210 215 212 162 106 132 186 205 199 189 173 184 188 160 126 108 108 105 134 180 189 202 201 160 115 168 160 178 197 201 196 194 205 198 186 173 171 187 155 162 266 280 348 62 176 176 170 141 145 186 195 153 181 212 179 132 132 260 246 95 259 266 205 252 280 317 279 265 253 258 277 295 284 268 264 266 263 261 265 266 229
51 39 77 144 200 210 210 213 207 182 117 108 171 200 204 185 188 158 153 177 157 136 122 134 150 145 170 179 193 200 172 109 166 174 189 204 235 201 197 225 196 190 194 175 192 196 152 229 300 94 192 260 191 117 63 9 136 135 182 216 197 88 92 117 231 341 40 257 268 219 246 276 305 271 297 17 352 303 277 267 262 266 269 266 265 273 289 294
50 37 345 263 233 207 201 201 180 154 114 129 200 213 173 177 263 74 63 44 131 128 129 159 167 146 166 180 190 186 169 162 182 189 182 192 240 203 181 203 199 193 198 172 190 234 144 191 297 55 189 284 2 115 224 338 81 139 184 197 126 118 243 120 157 212 202 249 275 267 257 260 231 227 267 343 317 312 292 287 283 267 261 256 261 280 299 303
63 53 351 240 217 199 182 178 162 138 117 160 203 221 190 209 279 26 79 30 53 104 154 182 165 151 174 173 166 171 176 179 178 184 181 183 235 217 179 186 202 197 192 169 181 225 124 183 260 319 205 306 11 151 190 270 339 36 98 145 117 145 177 169 171 173 162 204 258 277 280 254 231 189 147 214 258 275 273 278 267 249 249 252 255 272 285 286
89 78 350 201 193 184 164 154 141 112 122 171 205 226 170 200 259 252 127 64 44 63 163 202 154 154 180 177 163 167 180 180 173 184 200 183 212 251 196 184 183 189 185 178 186 188 115 192 225 303 331 45 194 206 180 173 180 173 164 191 205 112 117 181 197 142 143 168 218 263 274 263 237 159 159 202 230 240 236 239 250 242 242 255 257 252 257 263
81 94 281 180 175 167 147 135 148 143 129 200 229 246 259 260 237 238 114 94 114 24 117 160 146 143 175 177 175 176 166 165 176 185 211 199 197 243 215 186 171 164 166 178 196 192 183 190 171 177 257 201 223 234 197 186 185 177 182 192 190 166 133 170 241 248 132 170 185 186 267 273 245 152 169 186 198 218 198 145 86 119 176 213 245 236 233 244
82 123 218 177 171 160 140 141 207 141 153 215 175 163 218 254 245 202 128 87 128 237 70 128 158 156 164 173 184 173 157 165 187 186 199 210 195 201 233 203 172 160 156 175 201 194 153 115 130 186 219 214 238 264 233 211 215 210 197 185 176 165 145 158 214 241 161 221 212 141 256 271 245 128 152 180 192 203 180 147 98 61 210 220 307 297 284 264
124 178 187 174 173 161 145 199 190 165 204 179 139 154 183 198 230 178 161 148 155 161 154 193 193 170 155 117 155 155 156 173 189 190 198 208 199 220 280 245 169 157 152 168 193 189 131 117 139 231 299 326 322 331 354 6 330 244 233 159 138 180 178 160 181 188 167 215 214 153 244 264 293 75 45 258 243 221 177 150 134 124 315 342 360 344 322 272
179 245 155 178 179 172 174 200 190 195 203 147 149 184 184 191 212 197 181 185 168 148 160 190 191 174 169 107 93 134 167 178 190 195 187 188 201 279 348 338 156 150 158 180 180 187 197 175 141 134 316 331 342 344 344 349 358 218 231 190 177 185 176 152 172 169 201 221 201 181 239 252 261 49 26 12 17 48 44 21 66 60 4 335 328 313 287 270
178 156 309 207 194 193 201 187 174 192 193 183 190 187 176 193 211 201 194 183 166 154 167 188 144 122 131 92 68 27 339 104 150 197 115 158 255 346 4 356 59 125 174 112 141 175 184 179 158 159 194 219 215 203 222 242 181 215 231 202 192 183 174 180 197 196 229 230 205 192 240 254 258 53 48 27 25 19 357 340 340 351 331 308 298 291 290 293
123 167 200 235 237 234 231 133 124 180 182 191 205 190 183 196 211 192 191 194 184 174 176 164 117 115 130 125 121 227 304 62 89 106 104 106 288 309 344 3 38 81 130 58 48 119 143 193 194 183 204 212 198 205 204 164 153 199 216 198 193 193 188 183 173 201 223 230 224 223 235 256 264 250 222 314 327 330 314 308 306 303 304 305 297 291 294 295
201 197 179 164 149 232 225 218 204 202 184 187 192 181 185 194 196 176 192 207 190 176 176 143 142 161 177 175 175 195 201 115 77 117 147 164 255 296 347 46 44 1 354 34 14 71 112 225 218 193 222 218 174 191 189 157 175 201 207 199 199 198 188 187 203 219 218 212 238 237 221 245 262 254 216 263 284 287 269 262 266 272 283 292 296 300 305 300
212 277 217 190 179 194 205 209 199 202 224 208 188 176 183 192 192 184 194 207 185 174 185 200 189 191 191 188 192 196 172 159 193 209 169 156 205 315 348 24 36 357 3 17 350 77 125 229 232 173 239 242 174 185 82 125 193 204 199 202 204 204 198 201 217 225 213 204 241 243 202 220 257 264 180 206 257 267 245 250 262 258 258 268 280 292 296 289
200 303 294 257 216 194 194 178 167 190 216 223 214 199 190 195 199 193 175 172 193 197 196 208 206 200 200 191 185 199 196 185 218 221 178 168 182 160 202 288 341 15 35 50 352 43 141 217 165 108 275 272 236 216 134 126 215 260 233 218 205 212 215 216 227 235 232 235 251 259 245 237 256 273 240 215 246 268 262 263 281 279 274 274 270 266 266 266
158 140 286 313 294 204 164 148 153 182 208 214 226 226 211 206 203 195 172 172 189 192 194 213 214 197 199 196 190 209 212 200 220 225 179 173 210 188 191 212 145 31 37 68 353 347 168 204 73 81 313 278 259 238 216 200 204 232 255 251 235 230 228 228 236 243 246 250 254 262 269 264 261 274 279 261 252 274 284 277 274 277 281 285 279 267 262 262
205 42 89 2 298 202 164 165 156 171 197 203 215 215 219 225 204 184 189 191 186 177 188 209 211 185 192 198 197 214 215 205 218 221 186 181 195 197 203 201 167 147 109 127 121 29 129 177 44 81 202 263 255 233 235 236 229 243 249 243 237 234 234 232 229 225 228 238 250 257 261 265 263 247 268 274 266 254 276 279 275 274 277 280 279 275 273 271
215 271 120 76 305 221 191 197 168 180 199 204 214 211 212 226 197 166 197 208 193 190 190 198 199 178 187 201 206 213 208 190 191 188 164 160 134 115 139 137 145 156 163 165 154 150 159 158 150 145 193 255 247 191 184 181 187 241 242 238 234 231 230 234 233 229 225 221 233 244 243 258 272 259 254 273 274 258 265 274 272 274 285 296 283 269 268 274